Windhoek, Namibia

10:49 AM WAST on September 28, 2016 (GMT +0200)
Windhoek

Weather History for 68110 - April, 2014

Change the Weather History Date:

Friday, April 11, 2014

  Actual Average Record
Temperature  
Mean Temperature 62 °F -  
Max Temperature 75 °F - - ()
Min Temperature 50 °F - - ()
Degree Days  
Heating Degree Days 2    
Growing Degree Days 12 (Base 50)    
Moisture  
Dew Point 46 °F    
Average Humidity 59    
Maximum Humidity 82    
Minimum Humidity 28    
Precipitation  
Precipitation 0.00 in - - ()
Sea Level Pressure  
Sea Level Pressure 30.30 in    
Wind  
Wind Speed 8 mph ()    
Max Wind Speed 15 mph    
Max Gust Speed 26 mph    
Visibility 6.2 miles    
Events      
T = Trace of Precipitation, MM = Missing Value Source: Averaged Metar Reports

Daily Weather History Graph

Daily Weather History Graph

Search for Another Location

Airport or City:

Trip Planner

Search our weather history database for the weather conditions in past years. The results will help you decide how hot, cold, wet, or windy it might be!

Date:

Astronomy

Apr. 11, 2014 Rise Set
Actual Time 6:02 AM WAT 5:42 PM WAT
Civil Twilight 5:40 AM WAT 6:04 PM WAT
Nautical Twilight 5:14 AM WAT 6:30 PM WAT
Astronomical Twilight 4:48 AM WAT 6:56 PM WAT
Moon 3:13 PM WAT (4/11) 2:31 AM WAT (4/11)
Length of Visible Light 12h 24m
Length of Day
11h 39m
Waxing Gibbous, 85% of the Moon is Illuminated
Apr 11
Waxing Gibbous
Apr 15
Full
Apr 22
Last Quarter
Apr 29
New
May 7
First Quarter

Hourly Weather History & Observations

Time (WAT) Temp. Dew Point Humidity Pressure Visibility Wind Dir Wind Speed Gust Speed Precip Events Conditions
12:00 AM 55.4 °F 42.8 °F 63% 30.30 in - ENE 8.1 mph - N/A   Unknown
1:00 AM 55 °F 44 °F 58%  in - ENE 6.9 mph - -  
1:00 AM 53.6 °F 42.8 °F 67% 30.30 in - ENE 6.9 mph - N/A   Unknown
2:00 AM 53.6 °F 44.6 °F 72% 30.30 in - East 8.1 mph - N/A   Unknown
3:00 AM 51.8 °F 44.6 °F 76% 30.30 in - East 5.8 mph - N/A   Unknown
4:00 AM 53 °F 45 °F 67%  in - East 9.2 mph - -  
4:00 AM 51.8 °F 44.6 °F 76% 30.27 in - East 8.1 mph - N/A   Unknown
5:00 AM 51.8 °F 44.6 °F 76% 30.30 in - East 9.2 mph - N/A   Clear
6:00 AM 50.0 °F 44.6 °F 82% 30.33 in - East 5.8 mph - N/A   Clear
7:00 AM 54 °F 46 °F 65%  in 47 mi East 9.2 mph - -   Scattered Clouds
7:00 AM 53.6 °F 44.6 °F 72% 30.33 in 6.2 mi East 8.1 mph - N/A   Partly Cloudy
8:00 AM 60.8 °F 46.4 °F 59% 30.33 in 6.2 mi East 11.5 mph - N/A   Partly Cloudy
9:00 AM 64.4 °F 48.2 °F 56% 30.33 in 6.2 mi ENE 11.5 mph 25.3 mph N/A   Scattered Clouds
10:00 AM 68 °F 49 °F 39%  in 47 mi ENE 15.0 mph - -   Mostly Cloudy
10:00 AM 66.2 °F 48.2 °F 52% 30.33 in 6.2 mi ENE 15.0 mph 26.5 mph N/A   Mostly Cloudy
11:00 AM 69.8 °F 46.4 °F 43% 30.30 in 6.2 mi East 11.5 mph - N/A   Mostly Cloudy
12:00 PM 71.6 °F 46.4 °F 41% 30.30 in - ENE 12.7 mph - N/A   Unknown
1:00 PM 75 °F 49 °F 28%  in 47 mi ENE 9.2 mph - -   Mostly Cloudy
2:00 PM 71.6 °F 44.6 °F 38% 30.24 in 6.2 mi ENE 15.0 mph - N/A   Mostly Cloudy
3:00 PM 69.8 °F 44.6 °F 40% 30.24 in 6.2 mi ENE 8.1 mph - N/A   Mostly Cloudy
4:00 PM 70 °F 46 °F 30%  in 47 mi NE 9.2 mph - -   Partly Cloudy
6:00 PM 64.4 °F 48.2 °F 56% 30.27 in 6.2 mi East 6.9 mph - N/A   Partly Cloudy
7:00 PM 62 °F 49 °F 52%  in 40 mi East 5.8 mph - -   Scattered Clouds
7:00 PM 60.8 °F 48.2 °F 63% 30.30 in 6.2 mi East 4.6 mph - N/A   Scattered Clouds
8:00 PM 59.0 °F 48.2 °F 67% 30.30 in - East 9.2 mph - N/A   Unknown
9:00 PM 59.0 °F 50.0 °F 72% 30.30 in - East 13.8 mph - N/A   Unknown
10:00 PM 58 °F 49 °F 64%  in - East 15.0 mph - -  
10:00 PM 57.2 °F 48.2 °F 72% 30.30 in - East 15.0 mph - N/A   Unknown
11:00 PM 57.2 °F 50.0 °F 77% 30.33 in - East 8.1 mph - N/A   Unknown